Location: Newark
(48.6461°N, 4.3644°W)
Time: 01:05:00
(UTC+00:00)

S-56A Canister/Altair - Pass Details

Date: 24 January 2020
Orbit: 633 x 2499 km, 38.9° (Epoch: 21 February)

Event Time Altitude Azimuth Distance (km) Brightness Sun altitude
Rises 23:15:21 0° 254° (WSW) 3,293 - -56.9°
Reaches altitude 10° 23:18:20 10° 241° (WSW) 2,190 - -57.2°
Maximum altitude 23:22:16 25° 186° (S) 1,315 - -57.5°
Drops below altitude 10° 23:25:53 10° 131° (SE) 2,007 - -57.8°
Sets 23:28:30 0° 117° (ESE) 2,953 - -58.0°
